YAOGAN-32 B (43643 NORAD) Tracking and Keplerian Element Data

This shows tracking and keplerian element data for the satellite.

Feedback or suggestion? Click here.




ElementValue
Catalog43643
NameYAOGAN-32 B
Epoch Orbit432
Epoch Day311.78275309
Epoch Year2018
RAAN2.249
Inclination98.2762
Eccentricity0.0001142
Argument of Perigee110.569
Mean Anonmoly249.5625
Mean Motion14.59188504
Decay Rate5E-08
L11 43643U 18077B 18311.78275309 .00000005 00000-0 10953-4 0 9995
L22 43643 98.2762 2.2490 0001142 110.5690 249.5625 14.59188504 4320

Live tracking and technical data element details for YAOGAN-32 B (NORAD 43643). YAOGAN-32 B can be tracked NOW for your location showing map with azimuth and elevation plus other details from your city location.

Track the satellite on the map from your city or location and see movement details for azimuth, elevation, latitude, longitude, range, height, and movement on the map or in text.







IsCatalogInMostPopularTable: catalog: 43643, numindb: 15
Update: records affected: 1



GetName: 43643 YAOGAN-32 B

Hit Count: updated at: Thu, 15 Nov 2018 04:51:24 GMT